Home > Weather > Reno > Past weeks

Flag for USA Past Weather in Reno, Nevada, USA — Yesterday and Last 2 Weeks

Now
81 °F

Clear.


Feels Like: 79 °F
Forecast: 59 / 96 °F
Wind: 17 mph from Northwest

Location: Reno Tahoe International Airport

Current Time: Jun 26, 2016 at 10:59:25 PM

Latest Report: Jun 26, 2016 at 9:55 PM


Visibility: 10 mi

Pressure: 29.98 "Hg (25.65 "Hg at 1372m altitude)

Humidity: 20%

Dew Point: 36 °F

Location of RenoLocation

Past Weather in Reno — Graph

°F

Reno Temperature Yesterday

Maximum temperature yesterday: 90 °F (at 4:55 PM)
Minimum temperature yesterday: 56 °F (at 5:55 AM)
Average temperature yesterday: 75 °F

High & Low Weather Summary for the Past Weeks

 TemperatureHumidityPressure
High97 °F (Jun 26, 3:55 PM)67% (Jun 12, 2:55 AM)30.17 "Hg (Jun 12, 2:55 AM)
Low43 °F (Jun 16, 5:55 AM)4% (Jun 23, 1:55 PM)29.66 "Hg (Jun 15, 11:55 AM)
Average70 °F26%29.94 "Hg
* Reported Jun 11 8:55 PM — Jun 26 8:55 PM, Reno, Weather by CustomWeather, © 2016

Note: Actual official high and low records may vary slightly from our data, if they occured in-between our weather recording intervals... More about our weather records

Advertising

Reno Weather History for the Previous 24 Hours

Scroll right to see more
 ConditionsComfort  
Time TempWeatherWind HumidityBarometerVisibility
8:55 PM
Sun, Jun 26
84 °FPassing clouds.15 mph17%29.96 "Hg10 mi
7:55 PM88 °FPassing clouds.16 mph13%29.94 "Hg10 mi
6:55 PM91 °FPassing clouds.14 mph10%29.92 "Hg10 mi
5:55 PM94 °FPassing clouds.17 mph8%29.91 "Hg10 mi
4:55 PM95 °FPassing clouds.18 mph8%29.90 "Hg10 mi
3:55 PM97 °FPassing clouds.15 mph7%29.90 "Hg10 mi
2:55 PM95 °FPassing clouds.3 mph9%29.91 "Hg10 mi
1:55 PM94 °FScattered clouds.8 mph9%29.92 "Hg10 mi
12:55 PM91 °FPassing clouds.6 mph10%29.94 "Hg10 mi
11:55 AM88 °FPassing clouds.6 mph12%29.96 "Hg10 mi
10:55 AM84 °FPassing clouds.No wind17%29.98 "Hg10 mi
9:55 AM78 °FPassing clouds.No wind27%29.99 "Hg10 mi
8:55 AM73 °FSunny.No wind30%30.00 "Hg10 mi
7:55 AM69 °FSunny.3 mph35%30.00 "Hg10 mi
6:55 AM65 °FSunny.3 mph42%30.00 "Hg10 mi
5:55 AM62 °FPassing clouds.5 mph46%29.99 "Hg10 mi
4:55 AM62 °FPassing clouds.No wind46%29.99 "Hg10 mi
3:55 AM66 °FClear.3 mph40%29.97 "Hg10 mi
2:55 AM68 °FClear.6 mph38%29.96 "Hg10 mi
1:55 AM70 °FClear.5 mph35%29.96 "Hg10 mi
12:55 AM72 °FClear.5 mph33%29.96 "Hg10 mi
11:55 PM
Sat, Jun 25
75 °FClear.3 mph30%29.96 "Hg10 mi
10:55 PM78 °FClear.5 mph25%29.96 "Hg10 mi
Weather by CustomWeather, © 2016

See weather overviewHow to use our weather pages